Time,TemperatureF,DewpointF,PressureIn,WindDirection,WindDirectionDegrees,WindSpeedMPH,WindSpeedGustMPH,Humidity,HourlyPrecipIn,Conditions,Clouds,dailyrainin,SolarRadiationWatts/m^2,SoftwareType,DateUTC
2013-06-14 00:01:00,61.0,54.0,-100.00,East,100,2.0,9.0,79,0.00,,,0.58,0.000000,,2013-06-14 04:01:00,
2013-06-14 00:11:00,58.0,56.0,-100.00,ESE,103,1.0,3.0,92,0.00,,,0.58,0.000000,,2013-06-14 04:11:00,
2013-06-14 00:43:00,58.0,56.0,-100.00,ESE,103,1.0,3.0,92,0.00,,,0.58,0.000000,,2013-06-14 04:43:00,
2013-06-14 00:53:00,58.0,56.0,-100.00,ESE,103,1.0,3.0,92,0.00,,,0.58,0.000000,,2013-06-14 04:53:00,
2013-06-14 01:02:00,58.0,56.0,-100.00,ESE,103,1.0,3.0,92,0.00,,,0.58,0.000000,,2013-06-14 05:02:00,
2013-06-14 01:11:00,58.0,56.0,-100.00,East,90,2.0,4.0,93,0.00,,,0.58,0.000000,,2013-06-14 05:11:00,
2013-06-14 01:34:00,58.0,56.0,-100.00,East,90,2.0,4.0,93,0.00,,,0.58,0.000000,,2013-06-14 05:34:00,
2013-06-14 01:43:00,58.0,56.0,-100.00,East,90,2.0,4.0,93,0.00,,,0.58,0.000000,,2013-06-14 05:43:00,
2013-06-14 01:52:00,58.0,56.0,-100.00,East,90,2.0,4.0,93,0.00,,,0.58,0.000000,,2013-06-14 05:52:00,
2013-06-14 02:02:00,58.0,56.0,-100.00,East,90,2.0,4.0,93,0.00,,,0.58,0.000000,,2013-06-14 06:02:00,
2013-06-14 02:11:00,58.0,55.0,-100.00,ESE,102,1.0,4.0,91,0.00,,,0.58,0.000000,,2013-06-14 06:11:00,
2013-06-14 02:33:00,58.0,55.0,-100.00,ESE,102,1.0,4.0,91,0.00,,,0.58,0.000000,,2013-06-14 06:33:00,
2013-06-14 02:43:00,58.0,55.0,-100.00,ESE,102,1.0,4.0,91,0.00,,,0.58,0.000000,,2013-06-14 06:43:00,
2013-06-14 02:52:00,58.0,55.0,-100.00,ESE,102,1.0,4.0,91,0.00,,,0.58,0.000000,,2013-06-14 06:52:00,
2013-06-14 03:02:00,58.0,55.0,-100.00,ESE,102,1.0,4.0,91,0.00,,,0.58,0.000000,,2013-06-14 07:02:00,
2013-06-14 03:11:00,58.0,55.0,-100.00,ESE,106,2.0,4.0,89,0.00,,,0.58,0.000000,,2013-06-14 07:11:00,
2013-06-14 03:33:00,58.0,55.0,-100.00,ESE,106,2.0,4.0,89,0.00,,,0.58,0.000000,,2013-06-14 07:33:00,
2013-06-14 03:43:00,58.0,55.0,-100.00,ESE,106,2.0,4.0,89,0.00,,,0.58,0.000000,,2013-06-14 07:43:00,
2013-06-14 03:53:00,58.0,55.0,-100.00,ESE,106,2.0,4.0,89,0.00,,,0.58,0.000000,,2013-06-14 07:53:00,
2013-06-14 04:02:00,58.0,55.0,-100.00,ESE,106,2.0,4.0,89,0.00,,,0.58,0.000000,,2013-06-14 08:02:00,
2013-06-14 04:11:00,56.0,53.0,-100.00,East,95,1.0,5.0,91,0.00,,,0.58,0.000000,,2013-06-14 08:11:00,
2013-06-14 04:43:00,56.0,53.0,-100.00,East,95,1.0,5.0,91,0.00,,,0.58,0.000000,,2013-06-14 08:43:00,
2013-06-14 04:53:00,56.0,53.0,-100.00,East,95,1.0,5.0,91,0.00,,,0.58,0.000000,,2013-06-14 08:53:00,
2013-06-14 05:02:00,56.0,53.0,-100.00,East,95,1.0,5.0,91,0.00,,,0.58,0.000000,,2013-06-14 09:02:00,
2013-06-14 05:11:00,55.0,54.0,-100.00,NE,39,1.0,1.0,96,0.00,,,0.58,0.000000,,2013-06-14 09:11:00,
2013-06-14 05:43:00,55.0,54.0,-100.00,NE,39,1.0,1.0,96,0.00,,,0.58,0.000000,,2013-06-14 09:43:00,
2013-06-14 05:53:00,55.0,54.0,-100.00,NE,39,1.0,1.0,96,0.00,,,0.58,0.000000,,2013-06-14 09:53:00,
2013-06-14 06:01:00,55.0,54.0,-100.00,NE,39,1.0,1.0,96,0.00,,,0.58,0.000000,,2013-06-14 10:01:00,
2013-06-14 06:11:00,53.0,52.0,-100.00,WSW,243,0.0,0.0,97,0.00,,,0.58,1.000000,,2013-06-14 10:11:00,
2013-06-14 06:44:00,53.0,52.0,-100.00,WSW,243,0.0,0.0,97,0.00,,,0.58,1.000000,,2013-06-14 10:44:00,
2013-06-14 06:53:00,53.0,52.0,-100.00,WSW,243,0.0,0.0,97,0.00,,,0.58,1.000000,,2013-06-14 10:53:00,
2013-06-14 07:02:00,53.0,52.0,-100.00,WSW,243,0.0,0.0,97,0.00,,,0.58,1.000000,,2013-06-14 11:02:00,
2013-06-14 07:11:00,56.0,55.0,-100.00,NNW,343,0.0,0.0,98,0.00,,,0.58,40.000000,,2013-06-14 11:11:00,
2013-06-14 07:43:00,56.0,55.0,-100.00,NNW,343,0.0,0.0,98,0.00,,,0.58,40.000000,,2013-06-14 11:43:00,
2013-06-14 07:52:00,56.0,55.0,-100.00,NNW,343,0.0,0.0,98,0.00,,,0.58,40.000000,,2013-06-14 11:52:00,
2013-06-14 08:02:00,56.0,55.0,-100.00,NNW,343,0.0,0.0,98,0.00,,,0.58,40.000000,,2013-06-14 12:02:00,
2013-06-14 08:11:00,61.0,60.0,-100.00,East,97,3.0,5.0,95,0.00,,,0.58,191.000000,,2013-06-14 12:11:00,
2013-06-14 08:43:00,61.0,60.0,-100.00,East,97,3.0,5.0,95,0.00,,,0.58,191.000000,,2013-06-14 12:43:00,
2013-06-14 08:52:00,61.0,60.0,-100.00,East,97,3.0,5.0,95,0.00,,,0.58,191.000000,,2013-06-14 12:52:00,
2013-06-14 09:02:00,61.0,60.0,-100.00,East,97,3.0,5.0,95,0.00,,,0.58,191.000000,,2013-06-14 13:02:00,
2013-06-14 09:11:00,65.0,57.0,-100.00,ESE,111,3.0,7.0,76,0.00,,,0.58,468.000000,,2013-06-14 13:11:00,
2013-06-14 09:43:00,65.0,57.0,-100.00,ESE,111,3.0,7.0,76,0.00,,,0.58,468.000000,,2013-06-14 13:43:00,
2013-06-14 09:53:00,65.0,57.0,-100.00,ESE,111,3.0,7.0,76,0.00,,,0.58,468.000000,,2013-06-14 13:53:00,
2013-06-14 10:02:00,65.0,57.0,-100.00,ESE,111,3.0,7.0,76,0.00,,,0.58,468.000000,,2013-06-14 14:02:00,
2013-06-14 10:11:00,67.0,55.0,-100.00,ESE,106,3.0,8.0,66,0.00,,,0.58,672.000000,,2013-06-14 14:11:00,
2013-06-14 10:43:00,67.0,55.0,-100.00,ESE,106,3.0,8.0,66,0.00,,,0.58,672.000000,,2013-06-14 14:43:00,
2013-06-14 10:52:00,67.0,55.0,-100.00,ESE,106,3.0,8.0,66,0.00,,,0.58,672.000000,,2013-06-14 14:52:00,
2013-06-14 11:02:00,67.0,55.0,-100.00,ESE,106,3.0,8.0,66,0.00,,,0.58,672.000000,,2013-06-14 15:02:00,
2013-06-14 11:11:00,70.0,56.0,-100.00,SE,129,3.0,9.0,61,0.01,,,0.59,937.000000,,2013-06-14 15:11:00,
2013-06-14 11:44:00,70.0,56.0,-100.00,SE,129,3.0,9.0,61,0.01,,,0.59,937.000000,,2013-06-14 15:44:00,
2013-06-14 11:53:00,70.0,56.0,-100.00,SE,129,3.0,9.0,61,0.01,,,0.59,937.000000,,2013-06-14 15:53:00,
2013-06-14 12:01:00,70.0,56.0,-100.00,SE,129,3.0,9.0,61,0.01,,,0.59,937.000000,,2013-06-14 16:01:00,
2013-06-14 12:11:00,71.0,54.0,-100.00,ESE,105,4.0,8.0,56,0.00,,,0.59,1020.000000,,2013-06-14 16:11:00,
2013-06-14 12:43:00,71.0,54.0,-100.00,ESE,105,4.0,8.0,56,0.00,,,0.59,1020.000000,,2013-06-14 16:43:00,
2013-06-14 12:53:00,71.0,54.0,-100.00,ESE,105,4.0,8.0,56,0.00,,,0.59,1020.000000,,2013-06-14 16:53:00,
2013-06-14 13:02:00,71.0,54.0,-100.00,ESE,105,4.0,8.0,56,0.00,,,0.59,1020.000000,,2013-06-14 17:02:00,
2013-06-14 13:11:00,72.0,55.0,-100.00,ESE,118,3.0,9.0,55,0.00,,,0.36,890.000000,,2013-06-14 17:11:00,
2013-06-14 13:43:00,72.0,55.0,-100.00,ESE,118,3.0,9.0,55,0.00,,,0.36,890.000000,,2013-06-14 17:43:00,
2013-06-14 13:53:00,72.0,55.0,-100.00,ESE,118,3.0,9.0,55,0.00,,,0.36,890.000000,,2013-06-14 17:53:00,
2013-06-14 14:02:00,72.0,55.0,-100.00,ESE,118,3.0,9.0,55,0.00,,,0.36,890.000000,,2013-06-14 18:02:00,
2013-06-14 14:11:00,72.0,55.0,-100.00,ESE,117,4.0,8.0,55,0.00,,,0.13,867.000000,,2013-06-14 18:11:00,
2013-06-14 14:43:00,72.0,55.0,-100.00,ESE,117,4.0,8.0,55,0.00,,,0.13,867.000000,,2013-06-14 18:43:00,
2013-06-14 14:52:00,72.0,55.0,-100.00,ESE,117,4.0,8.0,55,0.00,,,0.13,867.000000,,2013-06-14 18:52:00,
2013-06-14 15:01:00,72.0,55.0,-100.00,ESE,117,4.0,8.0,55,0.00,,,0.13,867.000000,,2013-06-14 19:01:00,
2013-06-14 15:11:00,71.0,54.0,-100.00,SE,125,3.0,10.0,55,0.00,,,0.02,794.000000,,2013-06-14 19:11:00,
2013-06-14 15:43:00,71.0,54.0,-100.00,SE,125,3.0,10.0,55,0.00,,,0.02,794.000000,,2013-06-14 19:43:00,
2013-06-14 15:53:00,71.0,54.0,-100.00,SE,125,3.0,10.0,55,0.00,,,0.02,794.000000,,2013-06-14 19:53:00,
2013-06-14 16:02:00,71.0,54.0,-100.00,SE,125,3.0,10.0,55,0.00,,,0.02,794.000000,,2013-06-14 20:02:00,
2013-06-14 16:11:00,73.0,53.0,-100.00,SE,133,4.0,7.0,50,0.00,,,0.02,798.000000,,2013-06-14 20:11:00,
2013-06-14 16:43:00,73.0,53.0,-100.00,SE,133,4.0,7.0,50,0.00,,,0.02,798.000000,,2013-06-14 20:43:00,
2013-06-14 16:53:00,73.0,53.0,-100.00,SE,133,4.0,7.0,50,0.00,,,0.02,798.000000,,2013-06-14 20:53:00,
2013-06-14 17:02:00,73.0,53.0,-100.00,SE,133,4.0,7.0,50,0.00,,,0.02,798.000000,,2013-06-14 21:02:00,
2013-06-14 17:11:00,74.0,55.0,-100.00,SE,125,3.0,7.0,51,0.00,,,0.02,805.000000,,2013-06-14 21:11:00,
2013-06-14 17:43:00,74.0,55.0,-100.00,SE,125,3.0,7.0,51,0.00,,,0.02,805.000000,,2013-06-14 21:43:00,
2013-06-14 17:52:00,74.0,55.0,-100.00,SE,125,3.0,7.0,51,0.00,,,0.02,805.000000,,2013-06-14 21:52:00,
2013-06-14 18:02:00,74.0,55.0,-100.00,SE,125,3.0,7.0,51,0.00,,,0.02,805.000000,,2013-06-14 22:02:00,
2013-06-14 18:11:00,72.0,51.0,-100.00,ESE,113,3.0,7.0,47,0.00,,,0.02,678.000000,,2013-06-14 22:11:00,
2013-06-14 18:43:00,72.0,51.0,-100.00,ESE,113,3.0,7.0,47,0.00,,,0.02,678.000000,,2013-06-14 22:43:00,
2013-06-14 18:53:00,72.0,51.0,-100.00,ESE,113,3.0,7.0,47,0.00,,,0.02,678.000000,,2013-06-14 22:53:00,
2013-06-14 19:02:00,72.0,51.0,-100.00,ESE,113,3.0,7.0,47,0.00,,,0.02,678.000000,,2013-06-14 23:02:00,
2013-06-14 19:11:00,71.0,52.0,-100.00,SE,138,3.0,7.0,51,0.00,,,0.02,399.000000,,2013-06-14 23:11:00,
2013-06-14 19:43:00,71.0,52.0,-100.00,SE,138,3.0,7.0,51,0.00,,,0.02,399.000000,,2013-06-14 23:43:00,
2013-06-14 19:52:00,71.0,52.0,-100.00,SE,138,3.0,7.0,51,0.00,,,0.02,399.000000,,2013-06-14 23:52:00,
2013-06-14 20:01:00,71.0,52.0,-100.00,SE,138,3.0,7.0,51,0.00,,,0.02,399.000000,,2013-06-15 00:01:00,
2013-06-14 21:11:00,63.0,54.0,-100.00,East,93,0.0,4.0,73,-99.99,,,0.01,8.000000,,2013-06-15 01:11:00,
2013-06-14 21:33:00,63.0,54.0,-100.00,East,93,0.0,4.0,73,-99.99,,,0.01,8.000000,,2013-06-15 01:33:00,
2013-06-14 21:43:00,63.0,54.0,-100.00,East,93,0.0,4.0,73,-99.99,,,0.01,8.000000,,2013-06-15 01:43:00,
2013-06-14 21:54:00,63.0,54.0,-100.00,East,93,0.0,4.0,73,-99.99,,,0.01,8.000000,,2013-06-15 01:54:00,
2013-06-14 22:02:00,63.0,54.0,-100.00,East,93,0.0,4.0,73,-99.99,,,0.01,8.000000,,2013-06-15 02:02:00,
2013-06-14 22:11:00,59.0,55.0,-100.00,WSW,244,0.0,0.0,86,0.00,,,0.01,0.000000,,2013-06-15 02:11:00,
2013-06-14 22:43:00,59.0,55.0,-100.00,WSW,244,0.0,0.0,86,0.00,,,0.01,0.000000,,2013-06-15 02:43:00,
2013-06-14 22:53:00,59.0,55.0,-100.00,WSW,244,0.0,0.0,86,0.00,,,0.01,0.000000,,2013-06-15 02:53:00,
2013-06-14 23:01:00,59.0,55.0,-100.00,WSW,244,0.0,0.0,86,0.00,,,0.01,0.000000,,2013-06-15 03:01:00,
2013-06-14 23:11:00,57.0,55.0,-100.00,WNW,302,0.0,0.0,94,0.00,,,0.01,0.000000,,2013-06-15 03:11:00,
2013-06-14 23:44:00,57.0,55.0,-100.00,WNW,302,0.0,0.0,94,0.00,,,0.01,0.000000,,2013-06-15 03:44:00,
2013-06-14 23:53:00,57.0,55.0,-100.00,WNW,302,0.0,0.0,94,0.00,,,0.01,0.000000,,2013-06-15 03:53:00,